Flag for South Korea Weather past 2 weeks in Incheon, South Korea

Now
66 °F

Light rain. Cloudy.


Feels Like: 66 °F
Forecast: 68 / 78 °F
Wind: 13 mph from Northeast

Location: Incheon International Airport

Current Time: Sep 3, 2014 at 11:20:33 AM

Latest Report: Sep 3, 2014 at 10:30 AM


Visibility: 6 mi

Pressure: 29.59 "Hg

Humidity: 94%

Dew point: 64 °F

Location of IncheonLocation

Historic Weather in Incheon — Graph

°F

Incheon temperature yesterday

Maximum temperature yesterday: 79 °F (at 11:30 AM)
Minimum temperature yesterday: 70 °F (at 10:00 PM)
Average temperature yesterday: 74 °F

Past Weeks' High & Low Weather Summary

 TemperatureHumidityPressure
High84 °F (Aug 24, 2:30 PM)94% (Aug 20, 5:30 AM)30.04 "Hg (Aug 20, 5:30 AM)
Low63 °F (Sep 3, 1:30 AM)44% (Aug 31, 1:30 PM)29.56 "Hg (Sep 3, 8:30 AM)
Average75 °F74%29.87 "Hg
* Reported Aug 19 10:00 AM — Sep 3 10:00 AM, Incheon, Weather by CustomWeather, © 2014

Note: Actual official high and low records may vary slightly from our data, if they occured in-between our weather recording intervals... More about our weather records

Advertising

Incheon weather history for previous 24 hours

 ConditionsComfort  
Time TempWeatherWind HumidityBarometerVisibility
10:00 AM
Sep 3
66 °FLight rain. Mostly cloudy.10 mph88%29.59 "Hg4 mi
9:30 AM66 °FMostly cloudy.10 mph88%29.59 "HgN/A
9:00 AM64 °FMostly cloudy.12 mph94%29.56 "HgN/A
8:30 AM64 °FLight rain. Mostly cloudy.12 mph94%29.56 "Hg4 mi
8:00 AM64 °FLight rain. Mostly cloudy.14 mph88%29.59 "HgN/A
7:30 AM64 °FLight rain. Cloudy.14 mph88%29.59 "Hg5 mi
7:00 AM64 °FLight rain. Overcast.16 mph88%29.59 "Hg4 mi
6:30 AM63 °FLight rain. Overcast.17 mph94%29.59 "Hg4 mi
6:00 AM63 °FLight rain. Overcast.17 mph94%29.59 "Hg4 mi
5:30 AM63 °FLight rain. Overcast.17 mph94%29.62 "Hg4 mi
5:00 AM63 °FRain. Overcast.17 mph94%29.62 "Hg4 mi
4:00 AM63 °FRain. Fog.15 mph94%29.62 "Hg3 mi
3:30 AM63 °FRain. Fog.16 mph94%29.62 "Hg3 mi
3:00 AM63 °FRain. Fog.15 mph94%29.65 "Hg2 mi
2:30 AM63 °FRain. Fog.13 mph88%29.68 "Hg2 mi
2:00 AM63 °FRain. Fog.12 mph94%29.68 "Hg2 mi
1:30 AM63 °FRain. Fog.12 mph94%29.71 "Hg2 mi
1:00 AM64 °FRain. Fog.12 mph88%29.74 "Hg3 mi
12:30 AM66 °FRain. Overcast.14 mph83%29.74 "Hg4 mi
12:00 AM68 °FLight rain. Mostly cloudy.16 mph78%29.74 "Hg5 mi
11:30 PM
Sep 2
70 °FLight rain. Mostly cloudy.9 mph83%29.77 "Hg5 mi
11:00 PM70 °FLight rain. Mostly cloudy.8 mph83%29.77 "HgN/A
10:30 PM70 °FLight rain. Mostly cloudy.8 mph83%29.80 "HgN/A
10:00 PM70 °FLight rain. Mostly cloudy.7 mph83%29.80 "HgN/A
9:30 PM72 °FLight rain. Mostly cloudy.7 mph78%29.80 "HgN/A
9:00 PM72 °FLight rain. Mostly cloudy.6 mph73%29.80 "HgN/A
8:30 PM72 °FLight rain. Mostly cloudy.8 mph78%29.80 "HgN/A
8:00 PM72 °FLight rain. More clouds than sun.9 mph78%29.80 "HgN/A
7:30 PM73 °FLight rain. More clouds than sun.14 mph69%29.80 "HgN/A
7:00 PM73 °FLight rain. Broken clouds.15 mph69%29.80 "HgN/A
6:30 PM73 °FLight rain. Broken clouds.14 mph69%29.83 "HgN/A
6:00 PM75 °FLight rain. Broken clouds.13 mph65%29.83 "HgN/A
5:30 PM75 °FBroken clouds.14 mph65%29.86 "HgN/A
5:00 PM75 °FBroken clouds.15 mph61%29.83 "HgN/A
4:30 PM77 °FBroken clouds.15 mph57%29.86 "HgN/A
4:00 PM77 °FBroken clouds.13 mph61%29.86 "HgN/A
3:30 PM79 °FBroken clouds.9 mph54%29.86 "HgN/A
3:00 PM79 °FBroken clouds.13 mph54%29.86 "HgN/A
2:30 PM79 °FBroken clouds.15 mph54%29.86 "HgN/A
2:00 PM79 °FBroken clouds.14 mph54%29.86 "HgN/A
1:30 PM79 °FSunny.10 mph51%29.86 "Hg10 mi
1:00 PM79 °FSunny.12 mph51%29.89 "Hg10 mi
12:30 PM77 °FSunny.13 mph57%29.89 "Hg10 mi
12:00 PM79 °FSunny.12 mph54%29.92 "Hg10 mi
11:30 AM79 °FSunny.13 mph54%29.92 "Hg10 mi
11:00 AM77 °FSunny.13 mph57%29.92 "Hg10 mi
Weather by CustomWeather, © 2014

See weather overviewHow to use our weather pages